星链-5728 (STARLINK-5728 )

导读

STARLINK-5728是美国SpaceX公司星链(Starlink)卫星互联网项目的卫星,于2023年2月12日发射。星链项目旨在为全球偏远地区提供低延迟高速宽带互联网服务,该卫星属于星链星座组网计划的一部分,运行在近地轨道,助力项目实现全球覆盖的目标,截至2023年10月,已有超5000颗星链卫星入轨。

Basic Information
目录编号:
55588
目录名称:
STARLINK-5728
国际标识:
2023-020V
轨道中心:
EARTH
卫星名称:
星链-5728
卫星全名:
星链-5728 (STARLINK-5728 )
卫星状态:
在轨 (已飞行1300 天)
发射日期:
2023-02-12 UTC
国别 :
美国 (US)
星等 :
--
Orbit Information
数据来源 国际轨道数据
星历时间: 2026-09-04T05:15:27+0800
21小时前
查看轨道信息
半长轴: 6861.201km
偏心率: 0.0001453
轨道倾角: 43.002°
近地点辐角 260.651°
升交点赤经 79.013°
平近点角 99.418°
近地点: 482.067km
远地点: 484.061km
周期: 94.267分钟
每日圈数: 15.275751
Detailed Information
固有亮度:
5
最大亮度:
2.5
卫星平台:
Starlink v1.5
覆盖范围:
全球
运营商:
太空探索技术公司
运营商所在国:
美国
制造商(研发单位):
太空探索技术公司
制造商所在国:
美国
使用方式:
暂无
Satellite Introduction
星链(Starlink)计划是由太空探索技术公司(SpaceX)提出的一个巨型低轨卫星互联网星座项目,计划在2019年至2024年间在太空搭建由约1.2万颗卫星组成的“星链”网络,其中1584颗将部署在地球上空550千米处的近地轨道,并从2020年开始工作。该卫星仍在工作。
2D Orbit Map
3D Orbit Map
Orbit Altitude Analysis Chart
Orbit Inclination Analysis Chart
Orbit Comprehensive Analysis Chart
View Comprehensive Chart
Conjunction Data List
Event ID Objects TCA Miss Dist (km) Collision Risk Probability Collision Risk Index (CRI) Action
CDM_260906-183105-558806-221021
2026-09-06T
18:31:47+0000
0.679 km
远距离
6.030688E-5 中风险 0.71
CDM_260906-165705-558806-221021
2026-09-06T
16:57:38+0000
1.022 km
极远距离
1.583772E-5 中风险 0.59
CDM_260906-200505-558806-221021
2026-09-06T
20:05:56+0000
2.129 km
极远距离
1.636601E-6 低风险 0.39